This is the latest recevied weather packets stored in our database for station/object KO4ZGL-13. If no packets are shown the sender has not sent any weather packets the latest 10 day(s).
| Time | Temp. | Humidity | Pressure | Rain* | Wind** | Luminosity | Snow |
|---|---|---|---|---|---|---|---|
| 1788096155 | 25° C | 99% | 1022.3 hPa | 0 mm | - | 90 W/m² | - |
| 1788095854 | 24.44° C | 99% | 1022.1 hPa | 0 mm | - | 104 W/m² | - |
| 1788095549 | 24.44° C | 99% | 1022.2 hPa | 0 mm | - | 61 W/m² | - |
| 1788095244 | 24.44° C | 99% | 1022.3 hPa | 0 mm | - | 64 W/m² | - |
| 1788094944 | 24.44° C | 99% | 1022.2 hPa | 0 mm | - | 55 W/m² | - |
| 1788094638 | 24.44° C | 99% | 1022.2 hPa | 0 mm | - | 58 W/m² | - |
| 1788094333 | 24.44° C | 99% | 1022.3 hPa | 0 mm | - | 55 W/m² | - |
| 1788094031 | 24.44° C | 99% | 1022.3 hPa | 0 mm | - | 57 W/m² | - |
| 1788093727 | 24.44° C | 99% | 1022 hPa | 0 mm | - | 50 W/m² | - |
| 1788093423 | 24.44° C | 99% | 1022 hPa | 0 mm | - | 67 W/m² | - |
| 1788093120 | 24.44° C | 99% | 1021.7 hPa | 0 mm | - | 68 W/m² | - |
| 1788092816 | 24.44° C | 99% | 1021.8 hPa | 0 mm | - | 65 W/m² | - |
| 1788092511 | 24.44° C | 99% | 1022 hPa | 0 mm | - | 67 W/m² | - |
| 1788092207 | 23.89° C | 99% | 1021.6 hPa | 0 mm | - | 45 W/m² | - |
| 1788091906 | 23.89° C | 99% | 1021.7 hPa | 0 mm | - | 26 W/m² | - |
| 1788091601 | 23.89° C | 99% | 1021.5 hPa | 0 mm | - | 32 W/m² | - |
| 1788091298 | 23.89° C | 99% | 1021.6 hPa | 0 mm | - | 40 W/m² | - |
| 1788090994 | 23.89° C | 99% | 1021.6 hPa | 0 mm | - | 38 W/m² | - |
| 1788090689 | 23.89° C | 99% | 1021.5 hPa | 0 mm | - | 49 W/m² | - |
| 1788090386 | 23.89° C | 99% | 1021.1 hPa | 0 mm | - | 38 W/m² | - |
| 1788090085 | 23.33° C | 99% | 1021.4 hPa | 0 mm | - | 34 W/m² | - |
| 1788089781 | 23.33° C | 99% | 1021.2 hPa | 0 mm | - | 27 W/m² | - |
| 1788089475 | 23.33° C | 99% | 1021.2 hPa | 0 mm | - | 26 W/m² | - |
| 1788089172 | 23.33° C | 99% | 1021.2 hPa | 0 mm | - | 18 W/m² | - |
| 1788088868 | 23.33° C | 99% | 1021.1 hPa | 0 mm | - | 16 W/m² | - |
* Rain latest hour (hover to see other rain measurements)
** Current wind speed in m/s (hover to see current wind gust speed)